When you browse on this site, cookies collect data to enhance your experience and personalize the content and advertising you see.
Visit our Privacy Policy to learn more. By continuing to use the site, you agree to this use of cookies and data.
  • In Österreich
  • Länderverzeichnis
  • Für 7 Tage
  • Wassertemperatur
  • Satellitenkarten
  • Wetterkarte
  • News
  • Widgets
  • user-avatar
    Anmelden

    Stündliche Wetter Stepanakert

    Heute, 26 Mai, Sonntag

    Zeit Temperatur Niederschläge Wind Luftdruck Luftfeuchtigkeit
    00:00 +19°C° 0 mm 2 m/S 691 mmHg 68%
    01:00 +18°C° 0 mm 2 m/S 691 mmHg 67%
    02:00 +18°C° 0 mm 2 m/S 691 mmHg 66%
    03:00 +18°C° 0 mm 2 m/S 691 mmHg 61%
    04:00 +19°C° 0 mm 2 m/S 691 mmHg 63%
    05:00 +19°C° 0 mm 2 m/S 691 mmHg 65%
    06:00 +21°C° 0 mm 1 m/S 691 mmHg 68%
    07:00 +21°C° 0 mm 2 m/S 691 mmHg 63%
    08:00 +24°C° 0 mm 2 m/S 691 mmHg 59%
    09:00 +26°C° 0 mm 3 m/S 691 mmHg 54%
    10:00 +27°C° 0.1 mm 3 m/S 691 mmHg 52%
    11:00 +28°C° 0.1 mm 3 m/S 691 mmHg 50%
    12:00 +28°C° 0.1 mm 4 m/S 691 mmHg 48%
    13:00 +27°C° 0.2 mm 4 m/S 690 mmHg 53%
    14:00 +26°C° 0.2 mm 3 m/S 690 mmHg 59%
    15:00 +25°C° 0 mm 3 m/S 689 mmHg 63%
    16:00 +25°C° 0.5 mm 3 m/S 689 mmHg 66%
    17:00 +24°C° 0.5 mm 2 m/S 690 mmHg 70%
    18:00 +23°C° 0.5 mm 2 m/S 690 mmHg 73%
    19:00 +21°C° 0.6 mm 2 m/S 690 mmHg 77%
    20:00 +20°C° 0.6 mm 2 m/S 691 mmHg 82%
    21:00 +19°C° 0.6 mm 2 m/S 691 mmHg 86%
    22:00 +18°C° 0.1 mm 2 m/S 691 mmHg 85%
    23:00 +19°C° 0.1 mm 1 m/S 692 mmHg 85%

    Morgen, 27 Mai, Montag

    Zeit Temperatur Niederschläge Wind Luftdruck Luftfeuchtigkeit
    00:00 +18°C° 0.1 mm 1 m/S 692 mmHg 84%
    01:00 +18°C° 0 mm 1 m/S 692 mmHg 83%
    02:00 +18°C° 0 mm 1 m/S 692 mmHg 83%
    03:00 +16°C° 0 mm 1 m/S 692 mmHg 83%
    04:00 +18°C° 0 mm 1 m/S 693 mmHg 81%
    05:00 +18°C° 0 mm 1 m/S 693 mmHg 80%
    06:00 +19°C° 0 mm 1 m/S 693 mmHg 78%
    07:00 +20°C° 0 mm 1 m/S 694 mmHg 74%
    08:00 +20°C° 0 mm 2 m/S 694 mmHg 70%
    09:00 +21°C° 0 mm 2 m/S 694 mmHg 66%
    10:00 +22°C° 0.2 mm 3 m/S 694 mmHg 63%
    11:00 +22°C° 0.2 mm 3 m/S 694 mmHg 60%
    12:00 +24°C° 0.2 mm 3 m/S 694 mmHg 57%
    13:00 +24°C° 0.5 mm 3 m/S 694 mmHg 56%
    14:00 +24°C° 0.5 mm 3 m/S 694 mmHg 55%
    15:00 +25°C° 0.5 mm 3 m/S 694 mmHg 54%
    16:00 +24°C° 0 mm 3 m/S 694 mmHg 56%
    17:00 +23°C° 0 mm 2 m/S 694 mmHg 59%
    18:00 +23°C° 0 mm 2 m/S 694 mmHg 61%
    19:00 +20°C° 0 mm 2 m/S 694 mmHg 68%
    20:00 +19°C° 0 mm 1 m/S 695 mmHg 75%
    21:00 +16°C° 0 mm 1 m/S 695 mmHg 82%
    22:00 +16°C° 0 mm 1 m/S 695 mmHg 83%
    23:00 +16°C° 0 mm 1 m/S 695 mmHg 83%

    übermorgen, 28 Mai, Dienstag

    Zeit Temperatur Niederschläge Wind Luftdruck Luftfeuchtigkeit
    00:00 +16°C° 0 mm 1 m/S 695 mmHg 84%
    01:00 +15°C° 0 mm 1 m/S 695 mmHg 84%
    02:00 +15°C° 0 mm 1 m/S 695 mmHg 85%
    03:00 +14°C° 0 mm 1 m/S 695 mmHg 86%
    04:00 +15°C° 0.1 mm 1 m/S 695 mmHg 83%
    05:00 +16°C° 0.1 mm 1 m/S 695 mmHg 81%
    06:00 +18°C° 0.1 mm 1 m/S 696 mmHg 79%
    07:00 +19°C° 0 mm 1 m/S 696 mmHg 74%
    08:00 +19°C° 0 mm 2 m/S 696 mmHg 69%
    09:00 +20°C° 0 mm 2 m/S 696 mmHg 64%
    10:00 +20°C° 0 mm 2 m/S 696 mmHg 63%
    11:00 +21°C° 0 mm 3 m/S 696 mmHg 62%
    12:00 +21°C° 0 mm 3 m/S 695 mmHg 61%
    13:00 +22°C° 0.1 mm 3 m/S 695 mmHg 61%
    14:00 +22°C° 0.1 mm 3 m/S 695 mmHg 61%
    15:00 +22°C° 0.1 mm 3 m/S 695 mmHg 61%
    16:00 +21°C° 0.1 mm 3 m/S 695 mmHg 63%
    17:00 +21°C° 0.1 mm 2 m/S 695 mmHg 66%
    18:00 +20°C° 0.1 mm 2 m/S 694 mmHg 69%
    19:00 +19°C° 0.4 mm 2 m/S 695 mmHg 72%
    20:00 +19°C° 0.4 mm 1 m/S 695 mmHg 76%
    21:00 +18°C° 0.4 mm 1 m/S 696 mmHg 80%
    22:00 +16°C° 0.3 mm 1 m/S 696 mmHg 81%
    23:00 +16°C° 0.3 mm 1 m/S 695 mmHg 81%

    29 Mai, Mittwoch

    Zeit Temperatur Niederschläge Wind Luftdruck Luftfeuchtigkeit
    00:00 +15°C° 0.3 mm 1 m/S 695 mmHg 82%
    01:00 +15°C° 0.1 mm 1 m/S 695 mmHg 81%
    02:00 +14°C° 0.1 mm 2 m/S 695 mmHg 81%
    03:00 +14°C° 0.1 mm 2 m/S 695 mmHg 80%
    04:00 +15°C° 0 mm 2 m/S 695 mmHg 78%
    05:00 +15°C° 0 mm 1 m/S 695 mmHg 75%
    06:00 +16°C° 0 mm 1 m/S 696 mmHg 72%
    07:00 +18°C° 0 mm 1 m/S 696 mmHg 67%
    08:00 +19°C° 0 mm 2 m/S 696 mmHg 62%
    09:00 +20°C° 0 mm 2 m/S 696 mmHg 58%
    10:00 +21°C° 0.1 mm 2 m/S 696 mmHg 56%
    11:00 +23°C° 0.1 mm 2 m/S 696 mmHg 55%
    12:00 +24°C° 0.1 mm 3 m/S 696 mmHg 53%
    13:00 +24°C° 0.2 mm 3 m/S 695 mmHg 54%
    14:00 +24°C° 0.2 mm 3 m/S 695 mmHg 54%
    15:00 +24°C° 0.2 mm 3 m/S 695 mmHg 54%
    16:00 +24°C° 0.3 mm 3 m/S 695 mmHg 58%
    17:00 +23°C° 0.3 mm 2 m/S 695 mmHg 61%
    18:00 +21°C° 0.3 mm 2 m/S 695 mmHg 65%
    19:00 +20°C° 0.2 mm 2 m/S 695 mmHg 70%
    20:00 +20°C° 0.2 mm 1 m/S 695 mmHg 74%
    21:00 +19°C° 0.2 mm 1 m/S 695 mmHg 79%
    22:00 +18°C° 0 mm 1 m/S 695 mmHg 80%
    23:00 +16°C° 0 mm 1 m/S 695 mmHg 80%

    30 Mai, Donnerstag

    Zeit Temperatur Niederschläge Wind Luftdruck Luftfeuchtigkeit
    00:00 +16°C° 0 mm 2 m/S 695 mmHg 81%
    01:00 +16°C° 0 mm 2 m/S 695 mmHg 80%
    02:00 +15°C° 0 mm 2 m/S 694 mmHg 79%
    03:00 +15°C° 0 mm 2 m/S 694 mmHg 78%
    04:00 +16°C° 0 mm 1 m/S 694 mmHg 76%
    05:00 +16°C° 0 mm 1 m/S 695 mmHg 74%
    06:00 +18°C° 0 mm 1 m/S 695 mmHg 72%
    07:00 +19°C° 0 mm 2 m/S 695 mmHg 68%
    08:00 +20°C° 0 mm 2 m/S 695 mmHg 63%
    09:00 +23°C° 0 mm 2 m/S 695 mmHg 59%
    10:00 +23°C° 0 mm 2 m/S 695 mmHg 57%
    11:00 +24°C° 0 mm 3 m/S 695 mmHg 55%
    12:00 +25°C° 0 mm 3 m/S 694 mmHg 53%
    13:00 +25°C° 0.3 mm 3 m/S 694 mmHg 52%
    14:00 +25°C° 0.3 mm 3 m/S 694 mmHg 51%
    15:00 +26°C° 0.3 mm 3 m/S 693 mmHg 50%
    16:00 +25°C° 0.2 mm 2 m/S 693 mmHg 53%
    17:00 +24°C° 0.2 mm 2 m/S 693 mmHg 56%
    18:00 +24°C° 0.2 mm 2 m/S 693 mmHg 59%
    19:00 +21°C° 0.3 mm 2 m/S 693 mmHg 63%
    20:00 +19°C° 0.3 mm 2 m/S 693 mmHg 68%
    21:00 +18°C° 0.3 mm 1 m/S 694 mmHg 72%
    22:00 +17°C° 0 mm 2 m/S 694 mmHg 73%
    23:00 +16°C° 0 mm 2 m/S 693 mmHg 74%

    31 Mai, Freitag

    Zeit Temperatur Niederschläge Wind Luftdruck Luftfeuchtigkeit
    00:00 +16°C° 0 mm 2 m/S 693 mmHg 74%
    01:00 +16°C° 0 mm 2 m/S 693 mmHg 74%
    02:00 +15°C° 0 mm 2 m/S 693 mmHg 74%
    03:00 +15°C° 0 mm 2 m/S 693 mmHg 73%
    04:00 +16°C° 0 mm 2 m/S 693 mmHg 71%
    05:00 +17°C° 0 mm 2 m/S 694 mmHg 69%
    06:00 +18°C° 0 mm 1 m/S 694 mmHg 67%
    07:00 +19°C° 0 mm 2 m/S 694 mmHg 61%
    08:00 +20°C° 0 mm 2 m/S 694 mmHg 55%
    09:00 +23°C° 0 mm 2 m/S 694 mmHg 49%
    10:00 +24°C° 0 mm 2 m/S 694 mmHg 48%
    11:00 +25°C° 0 mm 3 m/S 693 mmHg 47%
    12:00 +26°C° 0 mm 3 m/S 693 mmHg 46%
    13:00 +26°C° 0 mm 3 m/S 693 mmHg 46%
    14:00 +26°C° 0 mm 3 m/S 692 mmHg 46%
    15:00 +27°C° 0 mm 3 m/S 692 mmHg 47%
    16:00 +26°C° 0.2 mm 3 m/S 692 mmHg 50%
    17:00 +25°C° 0.2 mm 2 m/S 692 mmHg 53%
    18:00 +24°C° 0.2 mm 2 m/S 692 mmHg 57%
    19:00 +23°C° 0 mm 1 m/S 692 mmHg 61%
    20:00 +21°C° 0 mm 1 m/S 692 mmHg 65%
    21:00 +20°C° 0 mm 1 m/S 692 mmHg 69%
    22:00 +19°C° 0 mm 1 m/S 692 mmHg 70%
    23:00 +18°C° 0 mm 2 m/S 692 mmHg 71%
    Mehr zeigen